COSMOS 2527 (756) (43508 NORAD) Tracking and Keplerian Element Data

This shows tracking and keplerian element data for the satellite.

Feedback or suggestion? Click here.




ElementValue
Catalog43508
NameCOSMOS 2527 (756)
Epoch Orbit4918
Epoch Day284.82238044
Epoch Year2024
RAAN94.4519
Inclination65.2557
Eccentricity0.0007606
Argument of Perigee213.4997
Mean Anonmoly146.4881
Mean Motion2.13102293
Decay Rate8.2E-07
L11 43508U 18053A 24284.82238044 .00000082 00000+0 00000+0 0 9996
L22 43508 65.2557 94.4519 0007606 213.4997 146.4881 2.13102293 49185



Live tracking and technical data element details for COSMOS 2527 (756) (NORAD 43508). COSMOS 2527 (756) can be tracked NOW for your location showing map with azimuth and elevation plus other details from your city location.







IsCatalogInMostPopularTable: catalog: 43508, numindb: 605
Update: records affected: 1



GetName: 43508 COSMOS 2527 (756)

Hit Count: updated at: Tue, 03 Dec 2024 01:48:47 GMT